Flag for Japan Weather past 2 weeks in Sapporo, Japan

Now
50 °F

Cool.


Feels Like: 50 °F
Forecast: 46 / 65 °F
Wind: 1 mph from Northeast

Location: Sapporo

Current Time: Apr 28, 2015 at 6:48:05 AM

Latest Report: Apr 28, 2015 at 5:00 AM


Visibility: N/A

Pressure: 29.90 "Hg

Humidity: 72%

Dew point: 42 °F

Location of SapporoLocation

Historic Weather in Sapporo — Graph

°F

Sapporo temperature yesterday

Maximum temperature yesterday: 75 °F (at 2:00 PM)
Minimum temperature yesterday: 52 °F (at 4:00 AM)
Average temperature yesterday: 60 °F

Past Weeks' High & Low Weather Summary

 TemperatureHumidityPressure
High75 °F (Apr 27, 2:00 PM)94% (Apr 20, 10:00 PM)30.47 "Hg (Apr 20, 10:00 PM)
Low37 °F (Apr 13, 5:00 AM)15% (Apr 23, 11:00 AM)29.44 "Hg (Apr 20, 11:00 PM)
Average50 °F60%29.87 "Hg
* Reported Apr 13 5:00 AM — Apr 28 5:00 AM, Sapporo, Weather by CustomWeather, © 2015

Note: Actual official high and low records may vary slightly from our data, if they occured in-between our weather recording intervals... More about our weather records

Advertising

Sapporo weather history for previous 24 hours

 ConditionsComfort  
Time TempWeatherWind HumidityBarometerVisibility
5:00 AM
Tue, Apr 28
50 °FCool.1 mph72%29.90 "HgN/A
4:00 AM50 °FCool.3 mph79%29.89 "HgN/A
3:00 AM51 °FClear.3 mph81%29.89 "Hg6 mi
2:00 AM51 °FCool.3 mph80%29.88 "HgN/A
1:00 AM52 °FCool.3 mph78%29.88 "HgN/A
12:00 AM52 °FCool.1 mph78%29.88 "HgN/A
11:00 PM
Mon, Apr 27
53 °FCool.2 mph78%29.88 "HgN/A
10:00 PM53 °FCool.5 mph77%29.87 "HgN/A
9:00 PM53 °FClear.3 mph76%29.85 "Hg6 mi
8:00 PM54 °FCool.3 mph75%29.85 "HgN/A
7:00 PM54 °FCool.3 mph74%29.83 "HgN/A
6:00 PM54 °FClear.12 mph73%29.82 "Hg9 mi
5:00 PM56 °FCool.14 mph67%29.80 "HgN/A
4:00 PM62 °FRefreshingly cool.9 mph58%29.76 "HgN/A
3:00 PM73 °FPassing clouds.9 mph34%29.72 "Hg9 mi
2:00 PM75 °FMild.9 mph31%29.71 "HgN/A
1:00 PM74 °FMild.12 mph30%29.72 "HgN/A
12:00 PM74 °FSunny.7 mph30%29.73 "Hg9 mi
11:00 AM71 °FMild.2 mph32%29.75 "HgN/A
10:00 AM69 °FMild.5 mph36%29.75 "HgN/A
9:00 AM65 °FSunny.10 mph40%29.73 "Hg9 mi
8:00 AM60 °FRefreshingly cool.12 mph43%29.74 "HgN/A
7:00 AM56 °FRefreshingly cool.16 mph49%29.73 "HgN/A
Weather by CustomWeather, © 2015

See weather overviewHow to use our weather pages